Location: Arrodets-la-Barthe
(43.0306°N, 0.2829°E)
Time: 07:31:14
(UTC+00:00)

Gurwin Techsat 1B - Visible Passes

Search period start: 01 April 2023 00:00
Search period end: 11 April 2023 00:00
Orbit: 811 x 813 km, 98.9° (Epoch: 31 March)

Date Brightness Start Highest point End Pass type
(mag) Time Alt. Az. Time Alt. Az. Time Alt. Az.
01 Apr 10.2 02:04:55 10° NE 02:09:06 28° E 02:09:06 28° E visible
01 Apr 9.1 03:44:32 10° N 03:49:27 39° WNW 03:50:18 37° W visible
02 Apr 10.8 01:42:42 10° NE 01:45:54 18° E 01:45:54 18° E visible
02 Apr 8.6 03:21:17 10° N 03:26:32 62° WNW 03:27:06 58° WSW visible
03 Apr 11.3 01:22:04 10° ENE 01:22:43 10° E 01:22:43 10° E visible
03 Apr 8.5 02:58:11 10° NNE 03:03:33 84° ESE 03:03:55 77° SSE visible
03 Apr 10.4 04:39:54 10° NNW 04:42:43 15° WNW 04:45:07 11° W visible
04 Apr 9.1 02:35:16 10° NNE 02:40:29 53° E 02:40:44 52° ESE visible
04 Apr 9.9 04:15:58 10° NNW 04:20:00 22° WNW 04:21:55 18° W visible
05 Apr 9.9 02:12:33 10° NNE 02:17:20 33° E 02:17:32 33° E visible
05 Apr 9.4 03:52:26 10° N 03:57:12 34° WNW 03:58:44 28° W visible
06 Apr 10.6 01:50:10 10° NE 01:54:07 21° E 01:54:21 21° E visible
06 Apr 8.8 03:29:08 10° N 03:34:18 53° WNW 03:35:33 43° WSW visible
07 Apr 11.1 01:28:35 10° ENE 01:30:47 12° E 01:31:09 12° E visible
07 Apr 8.5 03:06:00 10° NNE 03:11:20 84° WNW 03:12:21 60° SSW visible
07 Apr 10.5 04:48:10 10° NNW 04:50:24 13° WNW 04:52:39 10° W visible
08 Apr 8.9 02:43:00 10° NNE 02:48:18 61° ESE 02:49:09 54° SE visible
08 Apr 10.1 04:23:59 10° NNW 04:27:42 20° WNW 04:30:21 14° W visible
09 Apr 9.6 02:20:13 10° NNE 02:25:10 38° E 02:25:58 36° ESE visible
09 Apr 9.6 04:00:22 10° N 04:04:55 30° WNW 04:07:09 22° WSW visible
10 Apr 10.3 01:57:43 10° NE 02:01:58 24° E 02:02:46 23° ESE visible
10 Apr 9.0 03:36:59 10° N 03:42:03 46° WNW 03:43:57 33° WSW visible
